Flag for United Kingdom Weather past 2 weeks in Ipswich, England, United Kingdom

Now
57 °F

Partly sunny.


Feels Like: 53 °F
Forecast: 47 / 63 °F
Wind: 17 mph from North

Location: Wattisham

Current Time: Sep 5, 2015 at 3:19:28 PM

Latest Report: Sep 5, 2015 at 2:50 PM


Visibility: N/A

Pressure: 30.18 "Hg

Humidity: 59%

Dew point: 43 °F

Location of IpswichLocation

Historic Weather in Ipswich — Graph

°F

Ipswich temperature yesterday

Maximum temperature yesterday: 59 °F (at 3:50 PM)
Minimum temperature yesterday: 50 °F (at 12:50 AM)
Average temperature yesterday: 54 °F

Past Weeks' High & Low Weather Summary

 TemperatureHumidityPressure
High81 °F (Aug 22, 12:50 PM)100% (Aug 24, 2:50 AM)30.15 "Hg (Aug 24, 2:50 AM)
Low45 °F (Sep 3, 9:50 PM)40% (Aug 28, 2:50 PM)29.42 "Hg (Aug 24, 3:50 PM)
Average59 °F82%29.89 "Hg
* Reported Aug 21 1:50 PM — Sep 5 1:50 PM, Ipswich, Weather by CustomWeather, © 2015

Note: Actual official high and low records may vary slightly from our data, if they occured in-between our weather recording intervals... More about our weather records

Advertising

Ipswich weather history for previous 24 hours

 ConditionsComfort  
Time TempWeatherWind HumidityBarometerVisibility
1:50 PM
Sat, Sep 5
59 °FPartly sunny.17 mph51%30.15 "HgN/A
12:50 PM59 °FScattered clouds.14 mph63%30.15 "HgN/A
11:50 AM59 °FPartly sunny.17 mph59%30.12 "HgN/A
10:50 AM59 °FBroken clouds.16 mph68%30.09 "HgN/A
9:50 AM55 °FBroken clouds.15 mph82%30.09 "HgN/A
8:50 AM52 °FSprinkles. Partly sunny.9 mph94%30.07 "Hg6 mi
7:50 AM52 °FPartly sunny.8 mph94%30.07 "Hg6 mi
6:50 AM50 °FFog.6 mph94%30.04 "Hg5 mi
4:50 AM48 °FOvercast.8 mph94%30.04 "HgN/A
3:50 AM45 °FPassing clouds.6 mph93%30.04 "HgN/A
2:50 AM45 °FPassing clouds.6 mph93%30.04 "HgN/A
1:50 AM46 °FCool.6 mph87%30.04 "HgN/A
12:50 AM52 °FOvercast.7 mph77%30.04 "HgN/A
11:50 PM
Fri, Sep 4
52 °FOvercast.6 mph82%30.04 "HgN/A
10:50 PM52 °FPassing clouds.7 mph82%30.04 "HgN/A
9:50 PM54 °FPassing clouds.6 mph77%30.04 "HgN/A
8:50 PM54 °FPassing clouds.7 mph77%30.04 "HgN/A
7:50 PM54 °FOvercast.8 mph77%30.04 "HgN/A
6:50 PM55 °FPartly sunny.8 mph72%30.04 "HgN/A
5:50 PM55 °FPartly sunny.12 mph72%30.01 "HgN/A
4:50 PM57 °FPartly sunny.15 mph67%30.01 "HgN/A
3:50 PM59 °FBroken clouds.14 mph63%30.01 "HgN/A
Weather by CustomWeather, © 2015

See weather overviewHow to use our weather pages